STARLINK-5109 (54002 NORAD) Tracking and Keplerian Element Data

This shows tracking and keplerian element data for the satellite.

Feedback or suggestion? Click here.




ElementValue
Catalog54002
NameSTARLINK-5109
Epoch Orbit766
Epoch Day325.25001157
Epoch Year2022
RAAN222.4967
Inclination53.2173
Eccentricity0.000257
Argument of Perigee22.815
Mean Anonmoly288.1481
Mean Motion15.73173926
Decay Rate0.00056373
L11 54002U 22125AQ 22325.25001157 .00056373 00000+0 40380-3 0 9999
L22 54002 53.2173 222.4967 0002570 22.8150 288.1481 15.73173926 7663



Live tracking and technical data element details for STARLINK-5109 (NORAD 54002). STARLINK-5109 can be tracked NOW for your location showing map with azimuth and elevation plus other details from your city location.







IsCatalogInMostPopularTable: catalog: 54002, numindb: 3
Update: records affected: 1



GetName: 54002 STARLINK-5109

Hit Count: updated at: Mon, 28 Nov 2022 21:23:18 GMT